CW4114 Weather Reports


Display with metric or nautical units.
time (UTC)temp
F
wind
direction
speed
MPH
gust
MPH
rain 1hr
in
rain 24hr
in
rain mn
in
humidity
%
barometer
mb
20260831004410 66 117 2.0 6.0 0.00 0.13 0.13 96 1013.7
20260831003410 66 96 2.0 5.0 0.00 0.13 0.13 96 1013.9
20260831002909 66 151 2.0 5.0 0.00 0.13 0.13 96 1013.8
20260831002409 66 89 3.0 5.0 0.00 0.13 0.13 96 1013.7
20260831002140 66 93 3.0 5.0 0.00 0.13 0.13 96 1013.7
20260831001406 66 69 2.0 5.0 0.00 0.13 0.13 96 1013.6
20260831000906 66 117 3.0 6.0 0.00 0.13 0.13 95 1013.6
20260831000405 67 128 3.0 6.0 0.00 0.13 0.13 95 1013.6
20260830235905 67 73 3.0 6.0 0.00 0.13 0.13 95 1013.6
20260830235404 67 102 3.0 6.0 0.00 0.13 0.13 95 1013.5
20260830234905 67 142 2.0 7.0 0.00 0.13 0.13 95 1013.6
20260830234629 67 97 4.0 7.0 0.00 0.13 0.13 95 1013.6
20260830233905 67 138 2.0 6.0 0.00 0.13 0.13 95 1013.5
20260830233405 67 116 1.0 6.0 0.00 0.13 0.13 94 1013.7
20260830232909 67 100 3.0 6.0 0.00 0.13 0.13 94 1013.6
20260830232405 67 89 2.0 5.0 0.00 0.13 0.13 94 1013.8
20260830231904 67 80 2.0 4.0 0.00 0.13 0.13 94 1014.0
20260830231404 67 95 1.0 6.0 0.00 0.13 0.13 94 1014.1
20260830230903 67 80 1.0 6.0 0.00 0.13 0.13 94 1014.0
20260830230630 68 55 3.0 4.0 0.00 0.13 0.13 94 1014.1
20260830225904 68 137 1.0 5.0 0.00 0.13 0.13 95 1014.2
20260830225403 68 114 4.0 5.0 0.00 0.13 0.13 95 1014.2
20260830224903 68 71 2.0 4.0 0.00 0.13 0.13 95 1014.2
20260830224403 68 90 1.0 4.0 0.00 0.13 0.13 95 1014.2
20260830223903 68 120 2.0 4.0 0.00 0.13 0.13 95 1014.2
20260830223403 67 126 2.0 4.0 0.00 0.13 0.13 95 1014.3
20260830222901 67 89 2.0 4.0 0.00 0.13 0.13 95 1014.3
20260830222402 67 85 2.0 4.0 0.00 0.13 0.13 95 1014.3
20260830221900 67 86 1.0 4.0 0.00 0.13 0.13 95 1014.4
20260830221358 67 86 2.0 4.0 0.00 0.13 0.13 95 1014.3
20260830220856 67 117 2.0 4.0 0.00 0.13 0.13 95 1014.3
20260830220356 67 113 0.0 2.0 0.00 0.13 0.13 95 1014.3
20260830220124 67 123 1.0 3.0 0.00 0.13 0.13 95 1014.3
20260830215358 67 89 1.0 5.0 0.00 0.13 0.13 95 1014.3
20260830214856 67 127 1.0 6.0 0.00 0.13 0.13 95 1014.3
20260830213856 67 103 3.0 9.0 0.00 0.13 0.13 94 1014.1
20260830213354 67 89 4.0 9.0 0.00 0.13 0.13 94 1014.0
20260830212855 67 102 5.0 9.0 0.00 0.13 0.13 94 1013.9
20260830212354 68 85 3.0 9.0 0.00 0.13 0.13 93 1013.9
20260830211853 68 116 3.0 6.0 0.00 0.13 0.13 93 1014.0
20260830211353 68 104 4.0 6.0 0.00 0.13 0.13 93 1013.9
20260830210851 68 80 3.0 7.0 0.00 0.13 0.13 93 1013.9
20260830210351 68 110 2.0 7.0 0.00 0.13 0.13 92 1013.9
20260830205852 69 106 2.0 6.0 0.00 0.13 0.13 92 1013.9
20260830205349 69 99 4.0 6.0 0.00 0.13 0.13 91 1013.9
20260830204852 69 104 3.0 6.0 0.00 0.13 0.13 92 1013.8
20260830204612 70 130 3.0 5.0 0.00 0.13 0.13 91 1013.8
20260830203849 70 40 2.0 5.0 0.00 0.13 0.13 91 1013.8
20260830203616 70 85 2.0 6.0 0.00 0.13 0.13 91 1013.9
20260830202953 70 76 3.0 6.0 0.00 0.13 0.13 91 1013.9
20260830202348 70 71 3.0 7.0 0.00 0.13 0.13 91 1013.8
20260830201848 70 78 4.0 7.0 0.00 0.13 0.13 90 1013.8
20260830201348 71 83 3.0 6.0 0.00 0.13 0.13 90 1013.9
20260830200846 71 95 2.0 5.0 0.00 0.13 0.13 90 1013.8
20260830200346 71 104 4.0 5.0 0.00 0.13 0.13 91 1013.7
20260830195846 70 75 3.0 5.0 0.00 0.13 0.13 91 1013.7
20260830195346 70 59 3.0 5.0 0.00 0.13 0.13 90 1013.8
20260830194844 70 58 1.0 4.0 0.00 0.13 0.13 91 1013.8
20260830194346 70 102 1.0 5.0 0.00 0.13 0.13 90 1013.8
20260830193848 70 100 2.0 5.0 0.00 0.13 0.13 91 1013.9
20260830193348 70 110 1.0 3.0 0.00 0.13 0.13 91 1013.9
20260830192845 69 99 1.0 3.0 0.00 0.13 0.13 91 1014.0
20260830192346 69 162 0.0 6.0 0.00 0.13 0.13 91 1014.0
20260830191845 69 165 1.0 6.0 0.00 0.13 0.13 91 1013.9
20260830191348 69 164 1.0 3.0 0.00 0.13 0.13 91 1014.0
20260830190845 69 185 0.0 3.0 0.00 0.13 0.13 91 1014.1
20260830190345 69 152 2.0 4.0 0.00 0.13 0.13 91 1014.1
20260830190105 69 104 2.0 4.0 0.00 0.13 0.13 90 1014.1
20260830185345 69 149 1.0 4.0 0.00 0.13 0.13 91 1014.1
20260830184844 69 127 0.0 4.0 0.00 0.13 0.13 91 1014.1
20260830184345 69 134 2.0 3.0 0.00 0.13 0.13 91 1014.2
20260830183843 69 147 0.0 3.0 0.00 0.13 0.13 91 1014.3
20260830183344 69 106 2.0 3.0 0.00 0.13 0.13 91 1014.2
20260830182843 69 152 0.0 4.0 0.00 0.13 0.13 91 1014.1
20260830182344 69 104 1.0 4.0 0.00 0.13 0.13 90 1014.3
20260830181843 69 172 2.0 4.0 0.00 0.13 0.13 90 1014.2
20260830181344 69 224 1.0 5.0 0.00 0.13 0.13 90 1014.1
20260830180843 69 145 1.0 5.0 0.00 0.13 0.13 91 1014.2
20260830180344 70 148 2.0 4.0 0.00 0.13 0.13 91 1014.1
20260830180112 70 144 1.0 4.0 0.00 0.13 0.13 91 1014.1
20260830175342 69 175 2.0 5.0 0.00 0.13 0.13 93 1014.1
20260830174841 69 137 1.0 5.0 0.00 0.13 0.13 93 1014.1
20260830174337 68 196 2.0 4.0 0.00 0.13 0.13 93 1014.2
20260830173835 68 166 0.0 4.0 0.00 0.13 0.13 93 1014.1
20260830173334 68 186 1.0 5.0 0.00 0.13 0.13 93 1014.2
20260830172834 68 206 2.0 5.0 0.00 0.13 0.13 93 1014.2
20260830172334 68 189 3.0 5.0 0.00 0.13 0.13 93 1014.2
20260830171833 68 159 1.0 4.0 0.00 0.13 0.13 93 1014.1
20260830171818 68 171 1.0 3.0 0.00 0.13 0.13 93 1014.1
20260830170833 68 248 1.0 4.0 0.00 0.13 0.13 93 1014.2
20260830170331 68 204 1.0 4.0 0.00 0.13 0.13 93 1014.1
20260830165834 68 128 1.0 6.0 0.00 0.13 0.13 93 1014.1
20260830165332 68 188 2.0 7.0 0.00 0.13 0.13 93 1014.1
20260830164832 68 175 3.0 7.0 0.00 0.13 0.13 93 1014.1
20260830164331 69 149 1.0 6.0 0.00 0.13 0.13 96 1014.1
20260830164119 67 204 2.0 5.0 0.00 0.13 0.13 95 1014.2
20260830162914 67 157 2.0 4.0 0.00 0.13 0.13 95 1014.5
20260830162333 67 159 1.0 4.0 0.00 0.13 0.13 95 1014.5
20260830161831 66 161 2.0 5.0 0.00 0.13 0.13 95 1014.6
20260830161640 66 189 1.0 5.0 0.00 0.13 0.13 95 1014.7
20260830160830 66 159 1.0 5.0 0.00 0.13 0.13 95 1014.7
20260830160458 66 151 1.0 6.0 0.00 0.13 0.13 95 1014.5
20260830155349 66 200 1.0 4.0 0.00 0.13 0.13 96 1014.6
20260830154829 66 127 1.0 5.0 0.00 0.13 0.13 96 1014.5
20260830154330 66 175 2.0 5.0 0.00 0.13 0.13 96 1014.6
20260830154100 66 197 2.0 4.0 0.00 0.13 0.13 96 1014.7
20260830153326 66 182 1.0 6.0 0.00 0.13 0.13 96 1014.6
20260830152825 66 152 3.0 6.0 0.00 0.13 0.13 96 1014.7
20260830152324 66 140 2.0 9.0 0.00 0.13 0.13 96 1014.7
20260830151900 65 214 2.0 9.0 0.00 0.13 0.13 96 1014.8
20260830151322 65 144 2.0 6.0 0.00 0.13 0.13 96 1014.8
20260830150823 65 223 1.0 6.0 0.00 0.13 0.13 97 1014.7
20260830150322 65 169 3.0 6.0 0.00 0.13 0.13 97 1014.7
20260830150047 65 175 3.0 6.0 0.00 0.13 0.13 96 1014.7
20260830145556 65 190 2.0 7.0 0.00 0.13 0.13 97 1014.8
20260830144822 65 227 4.0 7.0 0.00 0.13 0.13 97 1014.7
20260830144327 65 162 2.0 6.0 0.00 0.13 0.13 97 1014.7
20260830143823 65 157 3.0 7.0 0.00 0.13 0.13 97 1014.5
20260830143353 65 158 3.0 7.0 0.00 0.13 0.13 97 1014.5
20260830142822 65 203 4.0 7.0 0.00 0.13 0.13 97 1014.5
20260830142321 65 142 2.0 6.0 0.01 0.13 0.13 97 1014.5
20260830141815 64 179 1.0 7.0 0.01 0.13 0.13 97 1014.5
20260830141317 64 278 2.0 11.0 0.01 0.13 0.13 96 1014.6
20260830140815 64 236 3.0 11.0 0.01 0.13 0.13 96 1014.5
20260830140314 64 197 2.0 11.0 0.01 0.13 0.13 96 1014.5
20260830135813 64 157 3.0 10.0 0.01 0.12 0.13 96 1014.6
20260830135312 64 192 4.0 10.0 0.01 0.12 0.13 96 1014.5
20260830134812 64 162 5.0 10.0 0.01 0.12 0.13 96 1014.7
20260830134310 64 141 3.0 10.0 0.01 0.12 0.13 96 1014.6
20260830133810 64 144 4.0 9.0 0.01 0.12 0.13 96 1014.7
20260830133309 64 157 4.0 9.0 0.01 0.12 0.13 96 1014.8
20260830133043 64 158 2.0 10.0 0.01 0.12 0.13 96 1014.9
20260830132310 64 171 3.0 10.0 0.01 0.12 0.12 96 1014.9
20260830131809 64 124 4.0 9.0 0.01 0.12 0.12 96 1015.1
20260830131309 64 244 2.0 9.0 0.01 0.12 0.12 96 1015.2
20260830130809 64 152 2.0 9.0 0.01 0.12 0.12 96 1015.1
20260830130307 64 157 2.0 9.0 0.01 0.12 0.12 96 1015.1
20260830125805 64 196 2.0 9.0 0.01 0.11 0.12 96 1014.9
20260830125306 64 162 3.0 9.0 0.01 0.11 0.12 96 1014.9
20260830124809 63 168 2.0 9.0 0.01 0.11 0.12 96 1014.9
20260830124306 63 103 4.0 9.0 0.01 0.11 0.12 96 1014.8
20260830123805 63 168 3.0 9.0 0.01 0.11 0.12 96 1014.9
20260830123304 63 185 4.0 9.0 0.01 0.11 0.12 96 1014.9
20260830122803 63 161 2.0 9.0 0.01 0.11 0.11 96 1014.9
20260830122306 63 182 3.0 10.0 0.00 0.11 0.11 96 1014.9
20260830121803 63 155 5.0 10.0 0.01 0.11 0.11 96 1014.9
20260830121304 63 179 4.0 9.0 0.01 0.11 0.11 96 1014.9
20260830120752 63 186 3.0 9.0 0.02 0.11 0.11 96 1014.9
20260830120251 63 189 3.0 9.0 0.02 0.11 0.11 96 1014.9
20260830115754 63 190 3.0 7.0 0.02 0.09 0.11 96 1015.2
20260830115309 63 197 3.0 7.0 0.02 0.09 0.11 96 1015.1
20260830115115 63 175 2.0 6.0 0.02 0.09 0.11 96 1015.2
20260830114525 63 166 4.0 6.0 0.02 0.09 0.11 96 1014.9
20260830113749 63 140 2.0 6.0 0.02 0.09 0.11 96 1014.8
20260830113249 63 111 2.0 5.0 0.02 0.09 0.11 96 1014.8
20260830112749 63 104 3.0 5.0 0.02 0.09 0.11 96 1014.9
20260830112513 63 176 1.0 4.0 0.02 0.09 0.11 96 1014.8
20260830111749 63 200 2.0 4.0 0.01 0.09 0.10 96 1014.9
20260830111246 63 195 2.0 7.0 0.01 0.09 0.10 96 1015.1
20260830110744 63 230 2.0 7.0 0.00 0.09 0.09 96 1015.1
20260830110513 63 250 2.0 6.0 0.00 0.09 0.09 96 1015.2
20260830110012 63 217 3.0 6.0 0.00 0.09 0.09 96 1014.9
20260830105244 63 202 1.0 6.0 0.00 0.09 0.09 96 1014.8
20260830104744 63 138 1.0 5.0 0.00 0.09 0.09 96 1014.7
20260830104243 63 175 0.0 3.0 0.00 0.09 0.09 96 1014.6
20260830103741 63 210 1.0 3.0 0.00 0.09 0.09 96 1014.7
20260830103242 64 159 1.0 5.0 0.00 0.09 0.09 96 1014.5
20260830102741 64 166 1.0 5.0 0.00 0.09 0.09 96 1014.4
20260830102239 64 186 2.0 5.0 0.00 0.09 0.09 96 1014.4
20260830101737 64 141 2.0 4.0 0.00 0.09 0.09 96 1014.4
20260830101236 64 161 2.0 5.0 0.00 0.09 0.09 96 1014.4
20260830100741 64 145 0.0 5.0 0.00 0.09 0.09 96 1014.3
20260830100237 64 171 2.0 7.0 0.00 0.09 0.09 96 1014.4
20260830095736 64 175 3.0 7.0 0.00 0.09 0.09 96 1014.3
20260830095501 64 161 2.0 7.0 0.00 0.09 0.09 96 1014.4
20260830094735 64 183 3.0 7.0 0.00 0.09 0.09 96 1014.3
20260830094235 64 192 3.0 9.0 0.00 0.09 0.09 96 1014.4
20260830093735 64 183 4.0 9.0 0.00 0.09 0.09 96 1014.4
20260830093233 64 204 3.0 7.0 0.00 0.09 0.09 96 1014.4
20260830092733 64 161 2.0 7.0 0.00 0.09 0.09 96 1014.5
20260830092232 64 214 3.0 9.0 0.00 0.09 0.09 96 1014.5
20260830091732 64 173 2.0 9.0 0.00 0.09 0.09 96 1014.6
20260830091233 64 182 2.0 7.0 0.00 0.09 0.09 96 1014.7
20260830090730 64 159 3.0 7.0 0.00 0.09 0.09 96 1014.7
20260830090502 64 155 3.0 7.0 0.00 0.09 0.09 96 1014.8
20260830085732 64 209 3.0 6.0 0.00 0.09 0.09 96 1014.9
20260830085504 64 181 3.0 7.0 0.00 0.09 0.09 96 1014.9
20260830085008 64 189 3.0 7.0 0.00 0.09 0.09 96 1014.9
20260830084232 64 181 3.0 7.0 0.00 0.09 0.09 96 1015.1
20260830083732 64 210 2.0 5.0 0.00 0.09 0.09 96 1015.3
20260830083233 64 200 1.0 4.0 0.00 0.09 0.09 96 1015.4
20260830082733 64 175 2.0 6.0 0.00 0.09 0.09 96 1015.3
20260830082234 64 199 1.0 6.0 0.00 0.09 0.09 96 1015.5
20260830081733 64 175 2.0 5.0 0.00 0.09 0.09 96 1015.5
20260830081234 64 224 3.0 5.0 0.01 0.09 0.09 96 1015.5
20260830080736 64 185 2.0 5.0 0.02 0.09 0.09 96 1015.4
20260830080235 64 172 1.0 5.0 0.02 0.09 0.09 96 1015.4
20260830075736 64 137 1.0 5.0 0.02 0.07 0.09 96 1015.5
20260830075235 64 179 2.0 6.0 0.02 0.07 0.09 96 1015.6
20260830074733 64 237 3.0 6.0 0.02 0.07 0.09 96 1015.8
20260830074233 64 216 3.0 5.0 0.02 0.07 0.09 96 1015.8
20260830073732 64 209 2.0 5.0 0.03 0.07 0.09 96 1015.8
20260830073232 64 240 3.0 6.0 0.03 0.07 0.09 96 1015.8
20260830072733 64 259 1.0 6.0 0.04 0.07 0.09 96 1015.8
20260830072233 64 226 2.0 6.0 0.04 0.07 0.09 95 1015.9
20260830071732 64 196 3.0 7.0 0.04 0.07 0.09 95 1015.9
20260830071459 64 212 3.0 7.0 0.05 0.07 0.08 95 1015.9
20260830070730 64 245 3.0 7.0 0.04 0.07 0.07 95 1016.1
20260830070456 64 279 3.0 7.0 0.05 0.07 0.07 95 1016.3
20260830065726 64 254 4.0 10.0 0.05 0.02 0.07 95 1016.3
20260830065227 64 278 6.0 10.0 0.05 0.02 0.07 95 1016.4
20260830064726 64 271 5.0 13.0 0.05 0.02 0.07 95 1016.4
20260830064225 64 250 5.0 13.0 0.05 0.02 0.06 95 1016.4
20260830063726 65 261 5.0 9.0 0.04 0.02 0.06 95 1016.4
20260830063451 65 267 4.0 10.0 0.04 0.02 0.06 95 1016.5
20260830062723 65 288 3.0 10.0 0.03 0.02 0.05 95 1016.5
20260830062449 65 261 2.0 7.0 0.03 0.02 0.05 95 1016.6
20260830061724 65 285 3.0 7.0 0.02 0.02 0.04 95 1016.7
20260830061223 65 245 3.0 6.0 0.01 0.02 0.03 95 1016.6
20260830060724 65 264 3.0 7.0 0.01 0.02 0.03 95 1016.6
20260830060224 65 276 3.0 7.0 0.01 0.02 0.02 95 1016.6
20260830055723 65 261 4.0 6.0 0.01 0.01 0.02 94 1016.6
20260830055222 65 268 4.0 6.0 0.01 0.01 0.02 94 1016.6
20260830054723 65 213 3.0 6.0 0.01 0.01 0.02 95 1016.7
20260830054222 65 282 3.0 6.0 0.01 0.01 0.02 95 1016.7
20260830053722 65 272 3.0 6.0 0.01 0.01 0.02 94 1016.7
20260830053223 66 250 2.0 7.0 0.01 0.01 0.02 94 1016.7
20260830052721 66 272 3.0 7.0 0.01 0.01 0.02 94 1016.7
20260830052222 66 275 2.0 6.0 0.01 0.01 0.02 94 1016.7
20260830051722 66 262 2.0 4.0 0.01 0.01 0.02 94 1016.7
20260830051221 66 240 1.0 3.0 0.02 0.01 0.02 94 1016.7
20260830050722 66 245 2.0 5.0 0.02 0.01 0.02 93 1016.7
20260830050444 66 255 1.0 5.0 0.01 0.01 0.01 93 1016.7
20260830045722 66 289 2.0 5.0 0.01 0.00 0.01 93 1016.7
20260830045222 66 250 2.0 5.0 0.01 0.00 0.01 93 1016.6
20260830044948 66 240 2.0 6.0 0.01 0.00 0.01 93 1016.5
20260830044222 66 258 1.0 6.0 0.01 0.00 0.01 92 1016.5
20260830043721 66 259 3.0 6.0 0.01 0.00 0.01 92 1016.6
20260830043220 66 257 3.0 7.0 0.01 0.00 0.01 92 1016.6
20260830042720 67 248 4.0 7.0 0.01 0.00 0.01 92 1016.5
20260830042220 67 252 4.0 7.0 0.01 0.00 0.01 91 1016.5
20260830041720 67 265 4.0 7.0 0.01 0.00 0.01 91 1016.5
20260830041219 67 245 3.0 6.0 0.00 0.00 0.00 91 1016.5
20260830040720 67 248 3.0 5.0 0.00 0.00 0.00 91 1016.4
20260830040219 67 278 3.0 6.0 0.00 0.00 0.00 90 1016.5
20260830035946 67 262 3.0 6.0 0.00 0.00 0.00 90 1016.5
20260830035220 67 240 3.0 6.0 0.00 0.00 0.00 90 1016.5
20260830034943 68 233 2.0 4.0 0.00 0.00 0.00 90 1016.5
20260830034448 68 283 2.0 6.0 0.00 0.00 0.00 89 1016.5
20260830033718 68 265 2.0 9.0 0.00 0.00 0.00 89 1016.6
20260830033218 68 257 3.0 9.0 0.00 0.00 0.00 88 1016.6
20260830032719 68 224 2.0 6.0 0.00 0.00 0.00 88 1016.6
20260830032218 69 262 3.0 6.0 0.00 0.00 0.00 87 1016.6
20260830031718 69 259 2.0 4.0 0.00 0.00 0.00 87 1016.6
20260830030718 69 272 2.0 5.0 0.00 0.00 0.00 86 1016.4
20260830030217 69 275 3.0 6.0 0.00 0.00 0.00 86 1016.5
20260830025718 69 276 3.0 6.0 0.00 0.00 0.00 86 1016.5
20260830025218 69 261 4.0 9.0 0.00 0.00 0.00 86 1016.4
20260830024717 69 288 2.0 9.0 0.00 0.00 0.00 85 1016.4
20260830024219 69 264 4.0 7.0 0.00 0.00 0.00 85 1016.4
20260830023717 69 274 3.0 12.0 0.00 0.00 0.00 85 1016.4
20260830023217 69 286 4.0 12.0 0.00 0.00 0.00 85 1016.4
20260830022717 69 271 4.0 9.0 0.00 0.00 0.00 85 1016.3
20260830022216 69 267 4.0 9.0 0.00 0.00 0.00 85 1016.3
20260830021941 69 269 4.0 11.0 0.00 0.00 0.00 85 1016.3
20260830021447 69 269 5.0 11.0 0.00 0.00 0.00 85 1016.3
20260830020716 69 255 4.0 6.0 0.00 0.00 0.00 85 1016.2
20260830020216 69 283 4.0 6.0 0.00 0.00 0.00 85 1016.2
20260830015716 69 252 4.0 6.0 0.00 0.00 0.00 85 1016.1
20260830015441 69 264 4.0 5.0 0.00 0.00 0.00 85 1016.1
20260830014715 69 281 3.0 7.0 0.00 0.00 0.00 85 1016.0
20260830014216 69 296 4.0 7.0 0.00 0.00 0.00 85 1016.0
20260830013715 69 259 3.0 5.0 0.00 0.00 0.00 85 1015.9
20260830013211 69 258 2.0 4.0 0.00 0.00 0.00 84 1015.8
20260830012712 69 241 2.0 5.0 0.00 0.00 0.00 84 1015.9
20260830012206 69 245 2.0 5.0 0.00 0.00 0.00 84 1015.9
20260830011706 70 262 2.0 5.0 0.00 0.00 0.00 83 1015.9
20260830011205 70 261 3.0 5.0 0.00 0.00 0.00 83 1015.9
20260830010705 70 261 2.0 5.0 0.00 0.00 0.00 83 1015.7
20260830010206 70 283 4.0 5.0 0.00 0.00 0.00 83 1015.8
20260830005708 70 261 2.0 6.0 0.00 0.00 0.00 82 1015.7
20260830005204 70 257 4.0 11.0 0.00 0.00 0.00 82 1015.6
20260830004705 70 276 4.0 11.0 0.00 0.00 0.00 82 1015.6